Simultaneous Nadir Overpasses (SNOs) Predictions

Prediction of SNOs between AQUA and GOES-15 Satellite Orbit:

Table of predicted SNOs for the next 14.0 days since TLE Epoch: 11/25/2023
Index Date Time (AQUA) AQUA Lat,Lon GOES-15 Lat,Lon Distance(km) Time Diff (sec)
1 11/26/2023 09:33:44 0.92, 65.80 -0.02, 61.46 493.79 80
2 11/26/2023 21:54:15 0.13, 60.83 0.00, 61.39 63.84 80
3 11/28/2023 21:39:11 -0.68, 64.51 0.02, 61.35 359.93 80
4 11/29/2023 09:59:50 -0.41, 59.51 0.01, 61.40 215.03 80
5 12/01/2023 09:44:45 0.42, 63.19 -0.00, 61.35 209.22 80
6 12/01/2023 22:05:14 0.66, 58.23 -0.02, 61.27 346.68 80
7 12/03/2023 21:50:08 -0.18, 61.91 -0.01, 61.23 77.63 80
8 12/04/2023 10:10:46 -0.92, 56.92 0.03, 61.30 498.73 80
9 12/06/2023 09:55:38 -0.13, 60.61 0.03, 61.25 73.64 80
10 12/08/2023 09:40:29 0.66, 64.31 0.02, 61.22 351.56 80
11 12/08/2023 22:01:00 0.32, 59.33 -0.04, 61.12 203.00 80
